Dades meteomassalio
Diari Summary for Abril 20, 2017 Units:  English    Metric   Both
« Previous Day
Next Day »
Diari Semanal Mensual Anual Personalitzat
  Maxima: Minima: Mijana:
Temperatura: TemperatureC °F 6.3 °F 11.7 °F
Rosada: DewpointC °F 0.7 °F 4.4 °F
Humitat: Humidity % 35 % 63 %
Velocitat del vent: WindSpeedKMH mph 0.0 mph 6.8 mph
Racha vent: WindSpeedGustKMH mph - -
Vent:- - SE
Pressio: PressurehPa in 1022.6 in -
Pluja: 0.0 in    
Historical Graphs
 
 
Tabular Data for Abril 20, 2017
Time Temperature Dew Point Pressure Wind Wind Speed Wind Gust Humidity Rainfall Rate (Hourly) solar Conditions
TemperatureC °F DewpointC °F PressurehPa in Calm     Humidity % HourlyPrecipMM in SolarRadiationWatts/m^2 W/m2 Conditions
00:00 10.1 °F 5.5 °F 1022.6 in Calm     73 % 0.0 in 0.0 W/m2 CLR
00:05 10.1 °F 5.6 °F 1022.6 in Calm     74 % 0.0 in 0.0 W/m2 CLR
00:10 10.0 °F 5.6 °F 1022.6 in Calm     74 % 0.0 in 0.0 W/m2 CLR
00:15 9.9 °F 5.5 °F 1022.6 in Calm     74 % 0.0 in 0.0 W/m2 CLR
00:20 9.9 °F 5.4 °F 1022.6 in Calm     74 % 0.0 in 0.0 W/m2 CLR
00:25 9.8 °F 5.4 °F 1022.6 in Calm     74 % 0.0 in 0.0 W/m2 CLR
00:30 9.7 °F 5.5 °F 1022.6 in Calm     75 % 0.0 in 0.0 W/m2 CLR
00:35 9.6 °F 5.4 °F 1022.6 in Calm     75 % 0.0 in 0.0 W/m2 CLR
00:40 9.7 °F 5.4 °F 1022.6 in Calm     75 % 0.0 in 0.0 W/m2 CLR
00:45 9.7 °F 5.4 °F 1022.9 in Calm     75 % 0.0 in 0.0 W/m2 CLR
00:50 9.6 °F 5.3 °F 1022.9 in Calm     75 % 0.0 in 0.0 W/m2 CLR
00:55 9.4 °F 5.2 °F 1022.9 in Calm     75 % 0.0 in 0.0 W/m2 CLR
01:00 9.3 °F 5.3 °F 1022.9 in Calm     76 % 0.0 in 0.0 W/m2 CLR
01:05 9.2 °F 5.2 °F 1022.9 in Calm     76 % 0.0 in 0.0 W/m2 CLR
01:10 9.2 °F 5.3 °F 1022.9 in Calm     77 % 0.0 in 0.0 W/m2 CLR
01:15 9.1 °F 5.1 °F 1023.2 in Calm     76 % 0.0 in 0.0 W/m2 CLR
01:20 8.8 °F 4.8 °F 1022.9 in Calm     76 % 0.0 in 0.0 W/m2 CLR
01:25 8.7 °F 4.9 °F 1022.9 in Calm     77 % 0.0 in 0.0 W/m2 CLR
01:30 8.5 °F 4.9 °F 1023.2 in Calm     78 % 0.0 in 0.0 W/m2 CLR
01:31 8.5 °F 4.9 °F 1023.2 in Calm     78 % 0.0 in 0.0 W/m2 CLR
01:36 8.4 °F 4.9 °F 1023.2 in Calm     79 % 0.0 in 0.0 W/m2 CLR
01:41 8.4 °F 4.9 °F 1023.2 in Calm     79 % 0.0 in 0.0 W/m2 CLR
01:46 8.3 °F 4.9 °F 1023.2 in Calm     79 % 0.0 in 0.0 W/m2 CLR
01:51 8.3 °F 4.8 °F 1023.2 in Calm     79 % 0.0 in 0.0 W/m2 CLR
01:56 8.3 °F 5.1 °F 1023.2 in Calm     80 % 0.0 in 0.0 W/m2 CLR
02:01 8.2 °F 5.0 °F 1023.2 in Calm     80 % 0.0 in 0.0 W/m2 CLR
02:06 8.2 °F 4.9 °F 1023.2 in Calm     80 % 0.0 in 0.0 W/m2 CLR
02:11 8.1 °F 4.9 °F 1023.2 in Calm     80 % 0.0 in 0.0 W/m2 CLR
02:16 8.1 °F 4.8 °F 1023.2 in Calm     80 % 0.0 in 0.0 W/m2 CLR
02:21 8.0 °F 4.9 °F 1023.2 in Calm     81 % 0.0 in 0.0 W/m2 CLR
02:26 7.9 °F 4.9 °F 1023.2 in Calm     81 % 0.0 in 0.0 W/m2 CLR
02:31 7.9 °F 4.9 °F 1023.2 in Calm     81 % 0.0 in 0.0 W/m2 CLR
02:36 8.0 °F 4.9 °F 1023.2 in Calm     81 % 0.0 in 0.0 W/m2 CLR
02:41 8.1 °F 4.8 °F 1023.2 in Calm     80 % 0.0 in 0.0 W/m2 CLR
02:46 8.1 °F 5.0 °F 1023.2 in Calm     81 % 0.0 in 0.0 W/m2 CLR
02:51 8.1 °F 5.1 °F 1023.2 in Calm     81 % 0.0 in 0.0 W/m2 CLR
02:56 8.2 °F 5.1 °F 1023.2 in Calm     81 % 0.0 in 0.0 W/m2 CLR
03:01 8.2 °F 5.2 °F 1023.6 in Calm     81 % 0.0 in 0.0 W/m2 CLR
03:06 8.2 °F 5.2 °F 1023.2 in Calm     81 % 0.0 in 0.0 W/m2 CLR
03:11 8.2 °F 5.2 °F 1023.2 in Calm     81 % 0.0 in 0.0 W/m2 CLR
03:16 8.2 °F 5.1 °F 1023.2 in Calm     81 % 0.0 in 0.0 W/m2 CLR
03:21 8.2 °F 5.1 °F 1023.6 in Calm     81 % 0.0 in 0.0 W/m2 CLR
03:26 8.1 °F 5.1 °F 1023.6 in Calm     81 % 0.0 in 0.0 W/m2 CLR
03:27 8.1 °F 5.1 °F 1023.6 in Calm     81 % 0.0 in 0.0 W/m2 CLR
03:32 8.2 °F 5.1 °F 1023.6 in Calm     81 % 0.0 in 0.0 W/m2 CLR
03:37 8.3 °F 5.2 °F 1023.6 in Calm     81 % 0.0 in 0.0 W/m2 CLR
03:42 8.3 °F 5.1 °F 1023.6 in Calm     80 % 0.0 in 0.0 W/m2 CLR
03:47 8.3 °F 5.1 °F 1023.6 in Calm     80 % 0.0 in 0.0 W/m2 CLR
03:52 8.3 °F 5.1 °F 1023.2 in Calm     80 % 0.0 in 0.0 W/m2 CLR
03:57 8.3 °F 5.1 °F 1023.6 in Calm     80 % 0.0 in 0.0 W/m2 CLR
04:02 8.3 °F 5.1 °F 1023.6 in Calm     80 % 0.0 in 0.0 W/m2 CLR
04:07 8.4 °F 5.1 °F 1023.6 in Calm     80 % 0.0 in 0.0 W/m2 CLR
04:12 8.4 °F 5.1 °F 1023.6 in Calm     80 % 0.0 in 0.0 W/m2 CLR
04:17 8.3 °F 5.1 °F 1023.6 in Calm     80 % 0.0 in 0.0 W/m2 CLR
04:22 8.2 °F 5.0 °F 1023.6 in Calm     80 % 0.0 in 0.0 W/m2 CLR
04:27 8.1 °F 5.1 °F 1023.6 in Calm     81 % 0.0 in 0.0 W/m2 CLR
04:28 8.1 °F 5.1 °F 1023.6 in Calm     81 % 0.0 in 0.0 W/m2 CLR
04:33 8.1 °F 5.0 °F 1023.6 in Calm     81 % 0.0 in 0.0 W/m2 CLR
04:38 7.9 °F 4.9 °F 1023.6 in Calm     81 % 0.0 in 0.0 W/m2 CLR
04:43 7.9 °F 5.0 °F 1023.6 in Calm     82 % 0.0 in 0.0 W/m2 CLR
04:48 7.8 °F 4.8 °F 1023.6 in Calm     81 % 0.0 in 0.0 W/m2 CLR
04:53 7.8 °F 4.9 °F 1023.6 in Calm     82 % 0.0 in 0.0 W/m2 CLR
04:58 7.7 °F 4.8 °F 1023.6 in Calm     82 % 0.0 in 0.0 W/m2 CLR
05:03 7.7 °F 4.8 °F 1023.6 in Calm     82 % 0.0 in 0.0 W/m2 CLR
05:08 7.7 °F 4.8 °F 1023.6 in Calm     82 % 0.0 in 0.0 W/m2 CLR
05:13 7.6 °F 4.7 °F 1023.6 in Calm     82 % 0.0 in 0.0 W/m2 CLR
05:18 7.5 °F 4.6 °F 1023.6 in Calm     82 % 0.0 in 0.0 W/m2 CLR
05:23 7.4 °F 4.7 °F 1023.6 in Calm     83 % 0.0 in 0.0 W/m2 CLR
05:28 7.4 °F 4.7 °F 1023.6 in Calm     83 % 0.0 in 0.0 W/m2 CLR
05:33 7.4 °F 4.7 °F 1023.6 in Calm     83 % 0.0 in 0.0 W/m2 CLR
05:38 7.4 °F 4.7 °F 1023.6 in Calm     83 % 0.0 in 0.0 W/m2 CLR
05:43 7.4 °F 4.7 °F 1023.6 in Calm     83 % 0.0 in 0.0 W/m2 CLR
05:48 7.3 °F 4.6 °F 1023.6 in Calm     83 % 0.0 in 0.0 W/m2 CLR
05:53 7.3 °F 4.6 °F 1023.6 in Calm     83 % 0.0 in 0.0 W/m2 CLR
05:59 7.2 °F 4.5 °F 1023.6 in Calm     83 % 0.0 in 0.0 W/m2 CLR
06:04 7.3 °F 4.6 °F 1023.6 in Calm     83 % 0.0 in 0.0 W/m2 CLR
06:09 7.3 °F 4.6 °F 1023.6 in Calm     83 % 0.0 in 0.0 W/m2 CLR
06:14 7.2 °F 4.4 °F 1023.6 in Calm     83 % 0.0 in 0.0 W/m2 CLR
06:19 7.1 °F 4.4 °F 1023.6 in Calm     83 % 0.0 in 0.0 W/m2 CLR
06:24 7.1 °F 4.4 °F 1023.9 in Calm     83 % 0.0 in 0.0 W/m2 CLR
06:29 7.0 °F 4.3 °F 1023.6 in Calm     83 % 0.0 in 0.0 W/m2 CLR
06:34 7.0 °F 4.5 °F 1023.6 in Calm     84 % 0.0 in 0.0 W/m2 CLR
06:39 7.1 °F 4.6 °F 1023.6 in Calm     84 % 0.0 in 0.0 W/m2 CLR
06:44 7.1 °F 4.6 °F 1023.6 in Calm     84 % 0.0 in 0.0 W/m2 CLR
06:49 7.1 °F 4.4 °F 1023.6 in Calm     83 % 0.0 in 0.0 W/m2 CLR
06:54 7.0 °F 4.3 °F 1023.6 in Calm     83 % 0.0 in 0.0 W/m2 CLR
06:59 6.9 °F 4.4 °F 1023.6 in Calm     84 % 0.0 in 0.0 W/m2 CLR
07:04 6.8 °F 4.3 °F 1023.9 in Calm     84 % 0.0 in 0.0 W/m2 OVC
07:09 6.8 °F 4.3 °F 1023.9 in Calm     84 % 0.0 in 7.0 W/m2 OVC
07:14 6.7 °F 4.2 °F 1023.9 in Calm     84 % 0.0 in 7.0 W/m2 OVC
07:19 6.6 °F 4.1 °F 1023.9 in Calm     84 % 0.0 in 11.0 W/m2 BKN
07:24 6.6 °F 4.1 °F 1023.9 in Calm     84 % 0.0 in 14.0 W/m2 BKN
07:29 6.4 °F 3.9 °F 1023.9 in Calm     84 % 0.0 in 18.0 W/m2 BKN
07:34 6.4 °F 3.9 °F 1023.9 in Calm     84 % 0.0 in 23.0 W/m2 BKN
07:39 6.3 °F 4.0 °F 1024.3 in Calm     85 % 0.0 in 30.0 W/m2 BKN
07:44 6.3 °F 4.0 °F 1024.3 in Calm     85 % 0.0 in 37.0 W/m2 BKN
07:49 6.3 °F 4.0 °F 1024.3 in Calm     85 % 0.0 in 49.0 W/m2 BKN
07:54 6.4 °F 4.1 °F 1024.3 in Calm     85 % 0.0 in 53.0 W/m2 SCT
07:59 6.3 °F 4.0 °F 1024.6 in Calm     85 % 0.0 in 58.0 W/m2 SCT
08:04 6.3 °F 4.0 °F 1024.6 in Calm     85 % 0.0 in 63.0 W/m2 SCT
08:09 6.3 °F 4.0 °F 1024.6 in Calm     85 % 0.0 in 72.0 W/m2 FEW
08:14 6.4 °F 4.1 °F 1024.6 in Calm     85 % 0.0 in 83.0 W/m2 FEW
08:19 6.5 °F 4.2 °F 1024.6 in Calm     85 % 0.0 in 97.0 W/m2 FEW
08:24 6.6 °F 4.3 °F 1024.6 in Calm     85 % 0.0 in 104.0 W/m2 CLR
08:29 6.8 °F 4.4 °F 1024.6 in Calm     85 % 0.0 in 132.0 W/m2 CLR
08:34 7.0 °F 4.5 °F 1024.9 in Calm     84 % 0.0 in 130.0 W/m2 CLR
08:39 7.3 °F 4.8 °F 1024.9 in Calm     84 % 0.0 in 151.0 W/m2 CLR
08:44 7.6 °F 4.8 °F 1024.9 in Calm     83 % 0.0 in 165.0 W/m2 CLR
08:49 7.8 °F 4.9 °F 1024.9 in Calm     82 % 0.0 in 165.0 W/m2 CLR
08:54 8.0 °F 5.1 °F 1024.9 in Calm     82 % 0.0 in 174.0 W/m2 CLR
08:59 8.3 °F 5.3 °F 1024.9 in Calm     81 % 0.0 in 169.0 W/m2 CLR
09:04 8.7 °F 5.4 °F 1024.9 in Calm     80 % 0.0 in 174.0 W/m2 CLR
09:09 8.8 °F 5.4 °F 1024.9 in Calm     79 % 0.0 in 162.0 W/m2 CLR
09:14 9.0 °F 5.6 °F 1024.9 in Calm     79 % 0.0 in 190.0 W/m2 CLR
09:19 9.1 °F 5.5 °F 1024.9 in Calm     78 % 0.0 in 216.0 W/m2 CLR
09:20 9.2 °F 5.6 °F 1024.9 in Calm     78 % 0.0 in 218.0 W/m2 CLR
09:25 9.3 °F 5.6 °F 1024.9 in Calm     78 % 0.0 in 229.0 W/m2 CLR
09:30 9.3 °F 5.7 °F 1024.9 in Calm     78 % 0.0 in 250.0 W/m2 CLR
09:35 9.6 °F 5.9 °F 1024.9 in Calm     78 % 0.0 in 271.0 W/m2 CLR
09:40 9.9 °F 6.1 °F 1024.9 in Calm     77 % 0.0 in 297.0 W/m2 CLR
09:45 10.3 °F 6.1 °F 1024.9 in Calm     75 % 0.0 in 302.0 W/m2 CLR
09:50 10.6 °F 6.3 °F 1024.9 in Calm     75 % 0.0 in 318.0 W/m2 CLR
09:55 10.9 °F 6.3 °F 1024.9 in Calm     73 % 0.0 in 330.0 W/m2 CLR
10:00 11.3 °F 6.3 °F 1024.9 in Calm     71 % 0.0 in 355.0 W/m2 CLR
10:05 11.6 °F 6.3 °F 1024.9 in Calm     70 % 0.0 in 353.0 W/m2 CLR
10:10 12.0 °F 6.5 °F 1024.9 in Calm     69 % 0.0 in 371.0 W/m2 CLR
10:15 12.4 °F 6.7 °F 1024.9 in Calm     68 % 0.0 in 397.0 W/m2 CLR
10:20 12.8 °F 4.7 °F 1024.9 in Calm     58 % 0.0 in 408.0 W/m2 CLR
10:25 13.1 °F 4.3 °F 1024.9 in SE 9.3 mph 9.3 mph 55 % 0.0 in 399.0 W/m2 CLR
10:30 13.2 °F 4.1 °F 1024.9 in ESE 11.1 mph 11.1 mph 54 % 0.0 in 417.0 W/m2 CLR
10:35 13.4 °F 4.0 °F 1024.9 in South 8.0 mph 8.0 mph 53 % 0.0 in 410.0 W/m2 CLR
10:40 13.4 °F 4.1 °F 1024.9 in SE 3.7 mph 3.7 mph 53 % 0.0 in 462.0 W/m2 CLR
10:45 13.8 °F 3.5 °F 1024.9 in SSE 7.4 mph 7.4 mph 50 % 0.0 in 499.0 W/m2 CLR
10:50 13.7 °F 3.5 °F 1024.9 in SSE 1.9 mph   50 % 0.0 in 499.0 W/m2 CLR
10:55 14.1 °F 4.1 °F 1024.9 in South 11.1 mph 11.1 mph 51 % 0.0 in 548.0 W/m2 CLR
10:56 14.1 °F 4.1 °F 1024.9 in SSE 8.0 mph 8.0 mph 51 % 0.0 in 557.0 W/m2 CLR
11:01 14.2 °F 4.2 °F 1024.9 in SE 11.1 mph 11.1 mph 51 % 0.0 in 555.0 W/m2 CLR
11:06 14.4 °F 4.4 °F 1024.9 in ESE 5.6 mph 5.6 mph 51 % 0.0 in 547.0 W/m2 CLR
11:11 14.6 °F 4.3 °F 1024.9 in ESE 3.7 mph 3.7 mph 50 % 0.0 in 592.0 W/m2 CLR
11:16 14.6 °F 4.3 °F 1024.9 in East 9.3 mph 9.3 mph 50 % 0.0 in 589.0 W/m2 CLR
11:21 14.6 °F 3.7 °F 1024.9 in SSE 9.3 mph 9.3 mph 48 % 0.0 in 584.0 W/m2 CLR
11:26 14.7 °F 4.1 °F 1024.9 in South 7.4 mph 7.4 mph 49 % 0.0 in 591.0 W/m2 CLR
11:31 14.9 °F 4.3 °F 1024.9 in East 5.6 mph   49 % 0.0 in 541.0 W/m2 CLR
11:36 15.1 °F 4.4 °F 1024.9 in ESE 5.6 mph 5.6 mph 49 % 0.0 in 654.0 W/m2 CLR
11:41 15.4 °F 4.7 °F 1024.9 in South 11.1 mph 11.1 mph 49 % 0.0 in 526.0 W/m2 CLR
11:46 15.3 °F 4.6 °F 1024.9 in ESE 7.4 mph 7.4 mph 49 % 0.0 in 621.0 W/m2 CLR
11:51 15.4 °F 5.0 °F 1024.9 in ENE 8.0 mph 8.0 mph 50 % 0.0 in 626.0 W/m2 CLR
11:57 15.7 °F 4.7 °F 1024.9 in South 13.0 mph 13.0 mph 48 % 0.0 in 682.0 W/m2 CLR
12:01 15.7 °F 4.7 °F 1024.9 in ENE 9.3 mph 9.3 mph 48 % 0.0 in 689.0 W/m2 CLR
12:06 15.9 °F 5.2 °F 1024.9 in East 11.3 mph 11.3 mph 49 % 0.0 in 828.0 W/m2 CLR
12:12 16.1 °F 5.4 °F 1024.9 in SE 9.3 mph 9.3 mph 49 % 0.0 in 833.0 W/m2 CLR
12:17 16.3 °F 5.6 °F 1024.9 in South 9.3 mph 9.3 mph 49 % 0.0 in 812.0 W/m2 CLR
12:22 16.6 °F 5.6 °F 1024.9 in NE 8.0 mph 8.0 mph 48 % 0.0 in 726.0 W/m2 CLR
12:27 16.6 °F 5.6 °F 1024.9 in SE 18.5 mph 18.5 mph 48 % 0.0 in 698.0 W/m2 CLR
12:32 16.1 °F 5.3 °F 1024.6 in ESE 11.1 mph 11.1 mph 49 % 0.0 in 413.0 W/m2 CLR
12:37 16.0 °F 5.6 °F 1024.9 in SW 6.4 mph 6.4 mph 50 % 0.0 in 390.0 W/m2 CLR
12:42 15.9 °F 5.5 °F 1024.9 in SSE 11.1 mph 11.1 mph 50 % 0.0 in 396.0 W/m2 CLR
12:47 15.8 °F 6.2 °F 1024.9 in SSE 18.5 mph 18.5 mph 53 % 0.0 in 482.0 W/m2 CLR
12:52 15.9 °F 6.3 °F 1024.9 in SE 18.5 mph 18.5 mph 53 % 0.0 in 643.0 W/m2 CLR
12:57 15.8 °F 6.3 °F 1024.9 in SE 20.4 mph 20.4 mph 53 % 0.0 in 789.0 W/m2 CLR
13:02 15.7 °F 6.2 °F 1024.6 in SE 24.1 mph 24.1 mph 53 % 0.0 in 647.0 W/m2 CLR
13:07 15.7 °F 6.4 °F 1024.6 in SSE 16.7 mph 16.7 mph 54 % 0.0 in 663.0 W/m2 CLR
13:12 15.8 °F 6.8 °F 1024.6 in SE 19.3 mph 19.3 mph 55 % 0.0 in 816.0 W/m2 CLR
13:17 15.9 °F 6.6 °F 1024.6 in SSW 22.2 mph 22.2 mph 54 % 0.0 in 701.0 W/m2 CLR
13:22 15.6 °F 6.6 °F 1024.6 in SSE 20.4 mph 20.4 mph 55 % 0.0 in 788.0 W/m2 CLR
13:27 15.8 °F 6.8 °F 1024.6 in SE 24.1 mph 24.1 mph 55 % 0.0 in 812.0 W/m2 CLR
13:32 15.8 °F 6.6 °F 1024.6 in SSE 18.5 mph 18.5 mph 54 % 0.0 in 608.0 W/m2 CLR
13:37 15.9 °F 6.6 °F 1024.6 in SE 18.5 mph 18.5 mph 54 % 0.0 in 817.0 W/m2 CLR
13:42 15.8 °F 6.8 °F 1024.6 in SSE 25.9 mph 25.9 mph 55 % 0.0 in 865.0 W/m2 CLR
13:47 16.2 °F 6.8 °F 1024.6 in SSW 18.5 mph 18.5 mph 54 % 0.0 in 628.0 W/m2 CLR
13:52 16.1 °F 6.2 °F 1024.3 in SSW 24.1 mph 24.1 mph 52 % 0.0 in 728.0 W/m2 CLR
13:57 16.2 °F 6.6 °F 1024.6 in SSW 16.7 mph 16.7 mph 53 % 0.0 in 889.0 W/m2 CLR
14:02 16.2 °F 6.6 °F 1024.6 in ESE 24.1 mph 24.1 mph 53 % 0.0 in 775.0 W/m2 CLR
14:07 15.9 °F 6.4 °F 1024.6 in SE 24.1 mph 24.1 mph 53 % 0.0 in 849.0 W/m2 CLR
14:12 16.2 °F 6.6 °F 1024.3 in SSE 24.1 mph 24.1 mph 53 % 0.0 in 570.0 W/m2 CLR
14:17 16.4 °F 6.8 °F 1024.3 in SSE 20.4 mph 20.4 mph 53 % 0.0 in 821.0 W/m2 CLR
14:22 16.7 °F 6.8 °F 1024.3 in SSE 22.5 mph 22.5 mph 52 % 0.0 in 555.0 W/m2 CLR
14:27 16.7 °F 6.8 °F 1024.3 in South 22.2 mph 22.2 mph 52 % 0.0 in 946.0 W/m2 CLR
14:32 16.4 °F 6.6 °F 1024.3 in South 22.2 mph 22.2 mph 52 % 0.0 in 900.0 W/m2 CLR
14:37 16.6 °F 6.7 °F 1024.3 in South 13.0 mph 13.0 mph 52 % 0.0 in 969.0 W/m2 CLR
14:43 16.8 °F 6.6 °F 1024.3 in SSE 16.1 mph 16.1 mph 51 % 0.0 in 754.0 W/m2 CLR
14:48 16.7 °F 6.5 °F 1024.3 in SE 14.8 mph 14.8 mph 51 % 0.0 in 754.0 W/m2 CLR
14:53 16.9 °F 6.7 °F 1024.3 in ESE 14.8 mph 14.8 mph 51 % 0.0 in 1025.0 W/m2 CLR
14:58 17.1 °F 6.3 °F 1024.3 in ESE 7.4 mph 7.4 mph 49 % 0.0 in 976.0 W/m2 CLR
15:03 17.0 °F 6.2 °F 1024.3 in SE 18.5 mph 18.5 mph 49 % 0.0 in 366.0 W/m2 CLR
15:08 16.9 °F 6.7 °F 1024.3 in South 14.8 mph 14.8 mph 51 % 0.0 in 415.0 W/m2 CLR
15:13 16.9 °F 6.4 °F 1024.3 in SSW 16.7 mph 16.7 mph 50 % 0.0 in 478.0 W/m2 CLR
15:18 16.7 °F 6.5 °F 1024.3 in ESE 18.5 mph 18.5 mph 51 % 0.0 in 497.0 W/m2 CLR
15:23 16.7 °F 6.5 °F 1024.3 in SE 24.1 mph 24.1 mph 51 % 0.0 in 462.0 W/m2 CLR
15:28 16.3 °F 6.4 °F 1024.3 in SE 20.4 mph 20.4 mph 52 % 0.0 in 970.0 W/m2 CLR
15:33 16.4 °F 6.5 °F 1024.3 in SE 22.2 mph 22.2 mph 52 % 0.0 in 338.0 W/m2 CLR
15:38 16.6 °F 6.4 °F 1024.3 in SE 22.2 mph 22.2 mph 51 % 0.0 in 494.0 W/m2 CLR
15:43 16.7 °F 6.5 °F 1024.3 in South 13.0 mph 13.0 mph 51 % 0.0 in 693.0 W/m2 CLR
15:48 16.7 °F 6.5 °F 1024.3 in SE 18.5 mph 18.5 mph 51 % 0.0 in 772.0 W/m2 CLR
15:53 16.4 °F 6.2 °F 1024.3 in SE 22.2 mph 22.2 mph 51 % 0.0 in 466.0 W/m2 CLR
15:58 16.3 °F 6.2 °F 1024.3 in SE 24.1 mph 24.1 mph 51 % 0.0 in 373.0 W/m2 CLR
16:03 16.3 °F 6.4 °F 1024.3 in SE 16.7 mph 16.7 mph 52 % 0.0 in 766.0 W/m2 CLR
16:08 16.4 °F 6.3 °F 1023.9 in SE 13.0 mph 13.0 mph 51 % 0.0 in 861.0 W/m2 CLR
16:13 16.7 °F 5.9 °F 1024.3 in SE 18.5 mph 18.5 mph 49 % 0.0 in 838.0 W/m2 CLR
16:18 16.8 °F 5.7 °F 1023.9 in South 13.0 mph 13.0 mph 48 % 0.0 in 675.0 W/m2 CLR
16:23 17.0 °F 5.6 °F 1023.9 in SE 27.4 mph 27.4 mph 47 % 0.0 in 647.0 W/m2 CLR
16:28 16.7 °F 5.6 °F 1023.9 in SE 16.1 mph 16.1 mph 48 % 0.0 in 729.0 W/m2 CLR
16:33 16.6 °F 5.8 °F 1023.9 in SSE 5.6 mph 5.6 mph 49 % 0.0 in 816.0 W/m2 CLR
16:38 16.9 °F 5.6 °F 1023.9 in ESE 18.5 mph 18.5 mph 47 % 0.0 in 287.0 W/m2 CLR
16:43 16.7 °F 5.3 °F 1023.9 in SE 16.7 mph 16.7 mph 47 % 0.0 in 292.0 W/m2 CLR
16:48 16.7 °F 5.3 °F 1023.9 in ESE 18.5 mph 18.5 mph 47 % 0.0 in 357.0 W/m2 CLR
16:53 16.5 °F 4.8 °F 1023.9 in South 13.0 mph 13.0 mph 46 % 0.0 in 731.0 W/m2 CLR
16:58 16.5 °F 4.8 °F 1023.9 in ESE 16.7 mph 16.7 mph 46 % 0.0 in 260.0 W/m2 CLR
17:03 16.6 °F 4.6 °F 1023.9 in SSE 18.5 mph 18.5 mph 45 % 0.0 in 315.0 W/m2 CLR
17:08 16.4 °F 4.4 °F 1023.9 in ESE 5.6 mph 5.6 mph 45 % 0.0 in 640.0 W/m2 CLR
17:13 16.7 °F 5.1 °F 1023.9 in East 13.0 mph 13.0 mph 46 % 0.0 in 415.0 W/m2 CLR
17:18 16.8 °F 4.8 °F 1023.9 in ESE 13.0 mph 13.0 mph 45 % 0.0 in 431.0 W/m2 CLR
17:23 16.7 °F 4.7 °F 1023.9 in ESE 18.5 mph 18.5 mph 45 % 0.0 in 487.0 W/m2 CLR
17:28 16.6 °F 4.6 °F 1023.9 in SE 24.1 mph 24.1 mph 45 % 0.0 in 596.0 W/m2 CLR
17:33 16.7 °F 4.4 °F 1023.9 in ESE 8.0 mph 8.0 mph 44 % 0.0 in 550.0 W/m2 CLR
17:38 16.7 °F 3.3 °F 1023.9 in ESE 22.2 mph 22.2 mph 41 % 0.0 in 531.0 W/m2 CLR
17:43 16.6 °F 3.2 °F 1023.9 in SE 14.8 mph 14.8 mph 41 % 0.0 in 439.0 W/m2 CLR
17:48 16.4 °F 3.4 °F 1023.9 in SSE 13.0 mph 13.0 mph 42 % 0.0 in 355.0 W/m2 CLR
17:53 16.2 °F 2.6 °F 1023.9 in SE 14.5 mph 14.5 mph 40 % 0.0 in 394.0 W/m2 CLR
17:58 16.3 °F 1.6 °F 1023.9 in SE 16.7 mph 16.7 mph 37 % 0.0 in 489.0 W/m2 CLR
18:03 16.3 °F 0.8 °F 1023.9 in SSE 14.8 mph 14.8 mph 35 % 0.0 in 343.0 W/m2 CLR
18:08 16.4 °F 1.7 °F 1023.9 in SE 19.3 mph 19.3 mph 37 % 0.0 in 390.0 W/m2 CLR
18:13 16.2 °F 2.2 °F 1023.9 in East 20.4 mph 20.4 mph 39 % 0.0 in 255.0 W/m2 CLR
18:18 16.2 °F 1.4 °F 1023.9 in ESE 19.3 mph 19.3 mph 37 % 0.0 in 260.0 W/m2 CLR
18:23 16.1 °F 1.4 °F 1023.9 in SE 18.5 mph 18.5 mph 37 % 0.0 in 392.0 W/m2 CLR
18:28 16.1 °F 1.0 °F 1023.9 in ESE 13.0 mph 13.0 mph 36 % 0.0 in 415.0 W/m2 CLR
18:33 16.2 °F 2.2 °F 1024.3 in SE 18.5 mph 18.5 mph 39 % 0.0 in 366.0 W/m2 CLR
18:39 15.9 °F 1.9 °F 1023.9 in ESE 20.4 mph 20.4 mph 39 % 0.0 in 202.0 W/m2 CLR
18:43 15.8 °F 2.2 °F 1023.9 in SE 18.5 mph 18.5 mph 40 % 0.0 in 221.0 W/m2 CLR
18:49 15.9 °F 1.6 °F 1024.3 in SE 18.5 mph 18.5 mph 38 % 0.0 in 302.0 W/m2 CLR
18:54 15.8 °F 0.7 °F 1024.3 in SE 20.4 mph 20.4 mph 36 % 0.0 in 202.0 W/m2 CLR
18:59 15.7 °F 0.7 °F 1024.3 in SE 22.2 mph 22.2 mph 36 % 0.0 in 299.0 W/m2 CLR
19:04 15.6 °F 1.7 °F 1024.3 in SE 18.5 mph 18.5 mph 39 % 0.0 in 283.0 W/m2 CLR
19:09 15.6 °F 1.7 °F 1024.3 in ESE 18.5 mph 18.5 mph 39 % 0.0 in 211.0 W/m2 CLR
19:14 15.6 °F 1.3 °F 1024.3 in SE 16.7 mph 16.7 mph 38 % 0.0 in 237.0 W/m2 CLR
19:19 15.4 °F 1.2 °F 1024.3 in SSE 18.5 mph 18.5 mph 38 % 0.0 in 160.0 W/m2 CLR
19:24 15.3 °F 1.4 °F 1024.3 in SE 18.5 mph 18.5 mph 39 % 0.0 in 130.0 W/m2 CLR
19:29 15.2 °F 0.9 °F 1024.3 in ESE 18.5 mph 18.5 mph 38 % 0.0 in 176.0 W/m2 CLR
19:34 15.1 °F 1.2 °F 1024.3 in SSE 18.5 mph 18.5 mph 39 % 0.0 in 153.0 W/m2 CLR
19:39 15.0 °F 0.8 °F 1024.3 in SSE 14.8 mph 14.8 mph 38 % 0.0 in 135.0 W/m2 CLR
19:44 14.9 °F 1.4 °F 1024.6 in SSE 18.5 mph 18.5 mph 40 % 0.0 in 121.0 W/m2 CLR
19:49 14.7 °F 1.6 °F 1024.6 in SE 18.5 mph 18.5 mph 41 % 0.0 in 100.0 W/m2 CLR
19:54 14.6 °F 1.5 °F 1024.3 in SE 13.0 mph 13.0 mph 41 % 0.0 in 84.0 W/m2 FEW
19:59 14.6 °F 1.8 °F 1024.6 in SSE 9.3 mph 9.3 mph 42 % 0.0 in 69.0 W/m2 FEW
20:04 14.4 °F 1.7 °F 1024.6 in SSE 16.7 mph 16.7 mph 42 % 0.0 in 51.0 W/m2 SCT
20:09 14.3 °F 1.5 °F 1024.6 in SSE 13.0 mph 13.0 mph 42 % 0.0 in 42.0 W/m2 BKN
20:14 14.2 °F 1.8 °F 1024.6 in SE 9.3 mph 9.3 mph 43 % 0.0 in 30.0 W/m2 BKN
20:19 14.0 °F 1.9 °F 1024.6 in SSE 11.3 mph 11.3 mph 44 % 0.0 in 23.0 W/m2 BKN
20:24 13.9 °F 1.8 °F 1024.9 in SSE 11.1 mph 11.1 mph 44 % 0.0 in 18.0 W/m2 BKN
20:29 13.6 °F 2.2 °F 1024.9 in SE 9.3 mph 9.3 mph 46 % 0.0 in 14.0 W/m2 BKN
20:34 13.4 °F 2.3 °F 1024.9 in ESE 7.4 mph 7.4 mph 47 % 0.0 in 11.0 W/m2 BKN
20:39 13.3 °F 2.5 °F 1024.9 in SE 9.3 mph 9.3 mph 48 % 0.0 in 9.0 W/m2 BKN
20:44 13.1 °F 2.3 °F 1024.9 in SSE 11.1 mph 11.1 mph 48 % 0.0 in 5.0 W/m2 OVC
20:49 12.9 °F 2.5 °F 1025.3 in SSE 9.3 mph 9.3 mph 49 % 0.0 in 0.0 W/m2 OVC
20:54 12.8 °F 2.4 °F 1025.3 in SSE 5.6 mph   49 % 0.0 in 0.0 W/m2 OVC
20:59 12.6 °F 2.7 °F 1025.3 in ESE 5.6 mph 5.6 mph 51 % 0.0 in 0.0 W/m2 CLR
21:04 12.4 °F 2.8 °F 1025.3 in SE 5.6 mph 5.6 mph 52 % 0.0 in 0.0 W/m2 CLR
21:09 12.3 °F 2.9 °F 1025.6 in Calm     53 % 0.0 in 0.0 W/m2 CLR
21:14 12.1 °F 2.8 °F 1025.6 in Calm     53 % 0.0 in 0.0 W/m2 CLR
21:19 11.9 °F 2.9 °F 1025.6 in Calm     54 % 0.0 in 0.0 W/m2 CLR
21:24 11.8 °F 3.1 °F 1026.0 in Calm     55 % 0.0 in 0.0 W/m2 CLR
21:29 11.8 °F 3.1 °F 1026.0 in Calm     55 % 0.0 in 0.0 W/m2 CLR
21:34 11.7 °F 3.2 °F 1026.0 in Calm     56 % 0.0 in 0.0 W/m2 CLR
21:39 11.6 °F 3.1 °F 1026.0 in Calm     56 % 0.0 in 0.0 W/m2 CLR
21:44 11.4 °F 3.2 °F 1026.0 in Calm     57 % 0.0 in 0.0 W/m2 CLR
21:49 11.3 °F 3.1 °F 1026.0 in Calm     57 % 0.0 in 0.0 W/m2 CLR
21:54 11.2 °F 3.3 °F 1026.0 in SSE 5.6 mph 5.6 mph 58 % 0.0 in 0.0 W/m2 CLR
21:59 11.1 °F 3.2 °F 1026.3 in SSE 7.4 mph 7.4 mph 58 % 0.0 in 0.0 W/m2 CLR
22:04 11.0 °F 3.3 °F 1026.3 in Calm     59 % 0.0 in 0.0 W/m2 CLR
22:09 10.7 °F 3.0 °F 1026.3 in Calm     59 % 0.0 in 0.0 W/m2 CLR
22:14 10.4 °F 2.9 °F 1026.3 in SSE 7.4 mph 7.4 mph 60 % 0.0 in 0.0 W/m2 CLR
22:19 10.2 °F 3.3 °F 1026.3 in SSE 9.3 mph 9.3 mph 62 % 0.0 in 0.0 W/m2 CLR
22:24 10.4 °F 3.4 °F 1026.3 in SE 7.4 mph 7.4 mph 62 % 0.0 in 0.0 W/m2 CLR
22:29 10.4 °F 3.4 °F 1026.3 in Calm     62 % 0.0 in 0.0 W/m2 CLR
22:34 10.4 °F 3.4 °F 1026.6 in Calm     62 % 0.0 in 0.0 W/m2 CLR
22:39 10.2 °F 3.5 °F 1026.6 in Calm     63 % 0.0 in 0.0 W/m2 CLR
22:44 10.2 °F 3.4 °F 1026.6 in Calm     63 % 0.0 in 0.0 W/m2 CLR
22:49 9.9 °F 3.2 °F 1026.6 in Calm     63 % 0.0 in 0.0 W/m2 CLR
22:54 9.8 °F 3.3 °F 1026.6 in Calm     64 % 0.0 in 0.0 W/m2 CLR
22:59 9.6 °F 3.1 °F 1027.0 in Calm     64 % 0.0 in 0.0 W/m2 CLR
23:04 9.4 °F 3.1 °F 1027.0 in Calm     65 % 0.0 in 0.0 W/m2 CLR
23:09 9.2 °F 2.9 °F 1027.0 in Calm     65 % 0.0 in 0.0 W/m2 CLR
23:14 8.9 °F 2.9 °F 1027.0 in Calm     66 % 0.0 in 0.0 W/m2 CLR
23:19 8.7 °F 2.9 °F 1027.0 in Calm     67 % 0.0 in 0.0 W/m2 CLR
23:24 8.5 °F 2.5 °F 1027.0 in Calm     66 % 0.0 in 0.0 W/m2 CLR
23:29 8.3 °F 2.3 °F 1027.0 in Calm     66 % 0.0 in 0.0 W/m2 CLR
23:34 8.1 °F 2.3 °F 1027.0 in Calm     67 % 0.0 in 0.0 W/m2 CLR
23:39 7.9 °F 2.3 °F 1027.0 in Calm     68 % 0.0 in 0.0 W/m2 CLR
23:44 7.6 °F 2.3 °F 1027.0 in Calm     69 % 0.0 in 0.0 W/m2 CLR
23:49 7.4 °F 2.3 °F 1027.0 in Calm     70 % 0.0 in 0.0 W/m2 CLR
23:55 7.2 °F 2.1 °F 1027.0 in Calm     70 % 0.0 in 0.0 W/m2 CLR
Lo Temps de Massalio
Compliments of Weather Underground - 1.25 mb